Regional Weather Roundup
Issued by NWS

Home | Current Version | Previous Version | Text Only | Print | Product List | Glossary Off
Versions: 1 2 3 4 5 6 7 8 9 10 11 12 13 14 15 16 17 18 19 20 21 22 23 24 25 26 27 28 29 30 31 32 33 34 35 36 37 38 39 40 41 42 43 44 45 46 47 48 49 50

000
ASUS45 KPSR 280510
RWRAZ

ARIZONA REGIONAL HOURLY WEATHER ROUNDUP
NATIONAL WEATHER SERVICE PHOENIX AZ
1000 PM MST WED AUG 27 2014

NOTE: FAIR INDICATES FEW OR NO CLOUDS BELOW 12,000 FEET WITH NO
SIGNIFICANT WEATHER AND/OR OBSTRUCTIONS TO VISIBILITY.

AZZ001>003-036-280600-
NORTHWEST ARIZONA

CITY           SKY/WX    TMP DP  RH WIND       PRES   REMARKS
BULLHEAD CITY  CLEAR     90  46  22 CALM      29.91S
KINGMAN        CLEAR     69  45  41 E3        30.13R
$$

AZZ004>008-015-016-018-280600-
NORTH CENTRAL ARIZONA

CITY           SKY/WX    TMP DP  RH WIND       PRES   REMARKS
GRAND CANYON     N/A    N/A N/A N/A MISG        N/A
WILLIAMS       MOCLDY    59  50  72 SE5       30.42R
PRESCOTT       CLEAR     65  53  65 S8        30.24F
FLAGSTAFF      LGT RAIN  56  52  86 CALM      30.39F
PAYSON         CLOUDY    64  57  77 CALM      30.27S
PAGE           PTCLDY    71  51  49 S5        30.18S
$$

AZZ009>014-017-280600-
NORTHEAST ARIZONA

CITY           SKY/WX    TMP DP  RH WIND       PRES   REMARKS
WINSLOW        MOCLDY    67  59  75 SW12      30.25S
SAINT JOHNS    CLOUDY    64  56  75 SE5       30.28S
WINDOW ROCK    CLOUDY    62  46  55 N3        30.35
SHOW LOW       MOCLDY    59  55  88 CALM      30.36S
$$

AZZ023-280600-
GREATER PHOENIX AREA

CITY           SKY/WX    TMP DP  RH WIND       PRES   REMARKS
PHOENIX        PTCLDY    94  60  32 CALM      29.92R
BUCKEYE          N/A     86  68  54 CALM      29.93S
LUKE AFB       NOT AVBL
DEER VALLEY    CLEAR     90  59  35 E5        29.95R
SCOTTSDALE     CLEAR     92  60  34 E3        29.97S
MESA-GATEWAY   CLEAR     91  54  27 CALM      29.97S
$$

AZZ027-028-280600-
SOUTHWEST MARICOPA COUNTY AND PINAL COUNTY

CITY           SKY/WX    TMP DP  RH WIND       PRES   REMARKS
CASA GRANDE    CLEAR     90  55  31 CALM      29.97S
GILA BEND      CLEAR     93  48  21 SW5       29.93R
$$

AZZ503-504-507>509-280600-
SOUTHEAST ARIZONA

CITY           SKY/WX    TMP DP  RH WIND       PRES   REMARKS
TUCSON         CLEAR     87  55  33 N6        30.07S
DAVIS-MONTHAN  CLEAR     83  58  42 NW6       30.05F
NOGALES        CLEAR     71  59  65 CALM      30.16R
SIERRA VISTA   CLEAR     73  59  60 W9        30.22F
DOUGLAS        CLEAR     71  61  70 N6        30.16S
SAFFORD        CLEAR     80  55  42 NW10      30.06S
$$

AZZ020-021-025-026-031-280600-
SOUTHWEST ARIZONA

CITY           SKY/WX    TMP DP  RH WIND       PRES   REMARKS
YUMA           CLEAR     94  55  26 S3        29.87R
$$

CAZ031-033-041-043-047-048-061-280600-
SOUTHERN CALIFORNIA

CITY           SKY/WX    TMP DP  RH WIND       PRES   REMARKS
DOWNTOWN L.A.  CLEAR     74  58  57 CALM      30.00R
L.A. AIRPORT   CLEAR     73  58  59 W13       30.01R
SAN DIEGO      CLEAR     80  51  36 N7        30.01R
BURBANK        CLEAR     83  43  24 NW3       30.02R
ONTARIO        CLEAR     80  48  32 W5        30.03R
RIVERSIDE      CLEAR     80  49  33 CALM      30.03R
PALM SPRINGS   CLEAR     96  49  20 NW14      29.91R
IMPERIAL       CLEAR     94  49  21 SW9       29.85R
BLYTHE         CLEAR     91  55  29 N3        29.88R
NEEDLES        CLEAR     89  41  18 W9        29.91S
$$

NVZ020-UTZ003-280600-
SOUTHERN NEVADA-UTAH

CITY           SKY/WX    TMP DP  RH WIND       PRES   REMARKS
LAS VEGAS      CLEAR     89  35  14 SW7       29.98S
SALT LAKE CITY PTCLDY    66  53  63 SE10      30.21S
$$

NMZ009-TXZ055-280600-
NEW MEXICO-WEST TEXAS

CITY           SKY/WX    TMP DP  RH WIND       PRES   REMARKS
ALBUQUERQUE    PTCLDY    71  52  50 SE3       30.22F
EL PASO        PTCLDY    76  57  51 CALM      30.12F
$$


........................KEY........................
SKY/WX - SKY CONDITION/WEATHER
TMP    - TEMPERATURE IN FAHRENHEIT
DP     - DEW POINT IN FAHRENHEIT
RH     - RELATIVE HUMIDITY IN PERCENT
WIND   - DIRECTION AND SPEED IN MILES PER HOUR (MPH)
VRB    - VARIABLE WIND DIRECTION
PRES   - MEAN SEA LEVEL PRESSURE IN INCHES OF MERCURY
         F - FALLING PRESSURE   R - RISING PRESSURE
         S - STEADY PRESSURE
VSB    - VISIBILITY IN MILES
HX     - HEAT INDEX IN FAHRENHEIT
WCI    - WIND CHILL INDEX IN FAHRENHEIT
TC     - TEMPERATURE IN CELSIUS WHICH IS ALSO KNOWN AS
         TEMPERATURE IN CENTIGRADE
AFB    - AIR FORCE BASE
         LUKE AFB IS LUKE AIR FORCE BASE
         DAVIS-MONTHAN IS DAVIS-MONTHAN AIR FORCE BASE
NAS    - NAVAL AIR STATION
         EL CENTRO NAS IS EL CENTRO NAVAL AIR STATION
N/A    - NOT AVAILABLE



USA.gov is the U.S. government's official web portal to all federal, state and local government web resources and services.